Home > Weather > Eindhoven > Past weeks

Flag for Netherlands Past Weather in Eindhoven, Netherlands — Yesterday and Last 2 Weeks

Now
59 °F

Partly sunny.


Feels Like: 57 °F
Forecast: 44 / 64 °F
Wind: 10 mph from Northwest

Location: Eindhoven Airport

Current Time: May 24, 2016 at 3:49:54 PM

Latest Report: May 24, 2016 at 3:25 PM


Visibility: N/A

Pressure: 30.04 "Hg

Humidity: 59%

Dew Point: 45 °F

Location of EindhovenLocation

Past Weather in Eindhoven — Graph

°F

Eindhoven Temperature Yesterday

Maximum temperature yesterday: 59 °F (at 12:01 AM)
Minimum temperature yesterday: 52 °F (at 6:55 AM)
Average temperature yesterday: 54 °F

High & Low Weather Summary for the Past Weeks

 TemperatureHumidityPressure
High79 °F (May 9, 2:55 PM)100% (May 19, 12:25 AM)30.15 "Hg (May 19, 12:25 AM)
Low36 °F (May 16, 4:55 AM)26% (May 9, 4:25 PM)29.47 "Hg (May 12, 3:55 PM)
Average59 °F69%29.86 "Hg
* Reported May 9 2:25 PM — May 24 2:25 PM, Eindhoven, Weather by CustomWeather, © 2016

Note: Actual official high and low records may vary slightly from our data, if they occured in-between our weather recording intervals... More about our weather records

Advertising

Eindhoven Weather History for the Previous 24 Hours

Scroll right to see more
 ConditionsComfort  
Time TempWeatherWind HumidityBarometerVisibility
2:25 PM
Tue, May 24
57 °FMostly cloudy.8 mph63%30.04 "HgN/A
1:55 PM57 °FPartly sunny.8 mph63%30.04 "HgN/A
1:25 PM57 °FPartly sunny.12 mph63%30.07 "HgN/A
12:55 PM57 °FMore clouds than sun.12 mph63%30.07 "HgN/A
12:25 PM55 °FPartly sunny.10 mph63%30.07 "HgN/A
11:55 AM55 °FMostly cloudy.12 mph67%30.07 "HgN/A
11:25 AM54 °FBroken clouds.12 mph72%30.07 "HgN/A
10:55 AM54 °FPartly sunny.10 mph72%30.07 "HgN/A
10:25 AM54 °FOvercast.12 mph67%30.07 "HgN/A
9:55 AM52 °FMostly cloudy.12 mph77%30.07 "HgN/A
9:25 AM54 °FOvercast.10 mph72%30.07 "HgN/A
8:55 AM52 °FMostly cloudy.12 mph77%30.07 "HgN/A
8:25 AM52 °FOvercast.8 mph77%30.07 "HgN/A
8:00 AM50 °FMore clouds than sun.7 mph82%30.07 "HgN/A
7:55 AM50 °FMostly cloudy.9 mph82%30.07 "HgN/A
7:25 AM50 °FOvercast.8 mph82%30.07 "HgN/A
6:55 AM50 °FOvercast.7 mph82%30.07 "HgN/A
6:25 AM50 °FOvercast.6 mph82%30.07 "HgN/A
5:55 AM50 °FOvercast.6 mph82%30.07 "HgN/A
5:25 AM50 °FOvercast.7 mph82%30.07 "HgN/A
4:55 AM50 °FOvercast.8 mph88%30.07 "HgN/A
4:25 AM50 °FOvercast.7 mph88%30.07 "HgN/A
3:55 AM50 °FOvercast.8 mph88%30.07 "HgN/A
3:25 AM50 °FMostly cloudy.10 mph88%30.07 "HgN/A
2:55 AM52 °FMostly cloudy.9 mph82%30.07 "HgN/A
2:25 AM52 °FOvercast.10 mph82%30.07 "HgN/A
1:55 AM52 °FMostly cloudy.10 mph88%30.04 "HgN/A
1:25 AM52 °FMostly cloudy.10 mph94%30.04 "HgN/A
12:55 AM52 °FMostly cloudy.7 mph94%30.04 "HgN/A
12:25 AM52 °FMostly cloudy.7 mph94%30.04 "HgN/A
12:03 AM52 °FMostly cloudy.8 mph94%30.04 "HgN/A
11:25 PM
Mon, May 23
52 °FOvercast.8 mph94%30.04 "HgN/A
11:02 PM52 °FPartly cloudy.7 mph94%30.04 "HgN/A
10:55 PM52 °FPartly cloudy.8 mph94%30.04 "HgN/A
10:25 PM52 °FPartly sunny.8 mph94%30.04 "HgN/A
9:55 PM54 °FCloudy.9 mph88%30.04 "HgN/A
9:25 PM54 °FMostly cloudy.9 mph88%30.04 "HgN/A
8:55 PM54 °FDrizzle. Partly sunny.10 mph88%30.01 "HgN/A
8:25 PM54 °FLight rain. Broken clouds.13 mph88%30.01 "HgN/A
7:55 PM54 °FLight rain. Mostly cloudy.10 mph88%30.01 "HgN/A
7:25 PM54 °FLight rain. Partly sunny.12 mph94%30.01 "HgN/A
7:04 PM54 °FDrizzle. Partly sunny.13 mph88%29.98 "HgN/A
6:25 PM55 °FDrizzle. Broken clouds.13 mph88%29.98 "HgN/A
5:56 PM55 °FDrizzle. Partly sunny.12 mph88%29.98 "HgN/A
5:25 PM54 °FDrizzle. Broken clouds.13 mph94%29.98 "HgN/A
4:55 PM54 °FLight rain. Broken clouds.14 mph94%29.95 "Hg6 mi
4:25 PM55 °FDrizzle. Broken clouds.12 mph82%29.95 "HgN/A
3:55 PM55 °FDrizzle. More clouds than sun.12 mph82%29.95 "HgN/A
3:25 PM55 °FLight rain. Mostly cloudy.14 mph88%29.92 "HgN/A
Weather by CustomWeather, © 2016

See weather overviewHow to use our weather pages